Lapse_Rate
4.9 4.9 4.8 4.7 4.6 4.6 4.7 4.7 4.8 4.9 5.0 5.4 5.7 5.6 5.5 5.6 5.6 5.5 5.5 6.0 6.1 5.8 5.6 5.7 6.1 6.2 5.4 5.1 5.1 5.3 5.6 5.6 5.7 5.3 5.4 5.4 5.5 5.6 5.6 5.5 5.6 5.6 5.4 5.3 4.9
4.7 4.6 4.6 4.4 4.3 4.4 4.4 4.5 4.7 4.8 4.9 5.0 5.2 5.6 5.6 5.7 5.7 5.7 5.8 6.0 6.2 6.0 5.8 5.6 5.6 5.6 5.5 5.3 5.2 5.2 5.6 5.5 5.4 5.2 5.3 5.5 5.4 5.8 5.5 5.4 5.4 5.5 5.1 5.1 4.9
4.5 4.4 4.3 4.3 4.3 4.3 4.4 4.4 4.4 4.7 4.8 4.9 5.0 5.3 5.5 5.6 5.6 5.5 6.1 6.1 6.0 5.9 5.8 5.5 4.8 5.5 6.0 5.8 5.6 5.5 5.4 5.3 5.1 5.2 5.3 5.5 5.4 5.5 5.6 5.3 5.6 5.2 5.2 5.3 4.9
4.2 4.1 4.1 4.0 4.1 4.0 4.1 4.2 4.2 4.2 4.6 4.8 4.9 5.1 5.3 5.5 5.1 6.3 6.2 6.2 5.9 5.8 5.9 5.8 5.2 5.8 6.5 6.3 6.0 5.6 5.3 5.2 5.2 5.1 5.5 5.4 5.2 5.4 5.4 5.4 5.3 5.0 5.6 5.6 5.0
4.1 4.0 4.0 3.9 3.9 3.9 4.0 4.1 4.3 4.5 4.5 4.6 4.8 4.9 5.1 5.1 5.1 6.2 6.5 6.3 6.2 6.1 6.0 5.7 5.4 6.1 6.8 6.3 6.4 5.6 5.3 5.7 5.3 5.5 5.5 5.4 5.2 5.1 5.3 5.2 5.1 5.0 4.9 5.0 5.1
3.9 3.8 3.7 3.7 3.7 3.8 3.9 4.0 4.2 4.4 4.6 4.7 4.8 5.0 5.1 4.9 4.9 6.0 6.5 6.6 6.3 6.2 6.0 5.2 5.6 6.1 6.4 6.3 6.2 5.7 5.6 5.8 6.0 5.9 5.6 5.4 5.5 5.3 5.1 5.0 5.1 5.1 5.0 5.2 5.2
3.6 3.6 3.7 3.7 3.7 3.6 3.8 4.0 4.2 4.5 4.7 4.8 5.0 5.3 5.4 4.1 5.3 5.9 6.4 6.6 6.5 6.2 5.7 5.2 5.3 6.1 6.6 6.6 6.1 5.8 5.4 5.5 5.1 5.1 5.4 5.2 5.4 5.3 5.0 5.0 5.1 5.2 5.3 5.2 5.1
3.3 3.5 3.7 3.7 3.8 3.8 4.0 4.3 4.6 4.9 5.1 5.3 5.5 5.6 4.9 5.2 5.8 6.0 6.2 6.5 6.5 6.1 5.3 5.2 5.2 5.8 6.6 6.4 6.4 5.9 5.7 5.4 5.1 5.3 5.5 5.7 5.1 5.1 4.8 5.1 5.2 5.3 5.4 5.2 5.2
3.3 3.5 3.7 3.7 3.9 4.2 4.4 4.8 5.3 5.5 5.6 5.7 5.8 5.8 5.7 5.7 5.8 5.7 6.1 6.1 6.3 5.5 5.5 5.2 5.5 6.3 6.7 6.9 6.8 5.9 6.4 5.7 5.3 4.9 5.1 5.0 5.1 5.3 5.0 5.5 5.5 5.5 5.5 5.4 5.0
3.4 3.6 3.9 4.1 4.3 4.6 5.1 5.6 5.9 6.1 6.2 6.1 6.0 6.2 6.2 6.0 5.5 5.9 5.9 5.8 6.0 5.7 5.7 6.0 6.0 6.7 7.1 7.3 7.9 7.1 6.6 6.0 5.7 5.1 5.0 5.2 5.1 5.2 5.3 5.5 5.3 5.5 5.5 5.5 4.9
3.6 3.8 4.0 4.4 4.9 5.3 5.7 5.8 6.2 6.5 6.5 6.1 6.5 6.5 6.2 5.9 5.9 5.8 6.2 5.9 6.0 6.0 6.5 6.3 6.7 7.0 7.9 7.8 8.1 6.9 6.4 6.0 5.9 5.2 4.9 4.7 4.9 5.0 4.9 5.3 5.1 5.2 5.4 5.3 5.0
3.8 4.0 4.3 4.8 5.5 5.8 5.9 6.0 6.1 6.5 6.7 6.6 6.7 6.4 6.4 6.0 6.2 6.0 6.1 6.4 6.3 6.7 7.0 6.8 7.0 7.9 8.2 8.4 8.1 6.9 6.3 5.5 5.3 5.3 5.2 5.0 5.0 5.0 5.2 5.2 5.1 5.3 5.3 5.5 5.1
4.1 4.4 4.7 5.3 5.7 6.0 6.3 6.4 6.9 7.1 7.2 7.3 7.0 6.9 6.6 6.4 6.7 6.5 6.7 7.0 7.0 7.2 7.3 7.7 8.0 8.3 8.2 7.3 7.7 8.1 6.9 5.7 6.5 5.9 5.5 5.3 4.9 5.0 4.9 5.3 5.1 5.3 5.3 5.3 5.4
4.4 4.8 5.2 5.4 5.9 6.1 6.4 6.8 7.1 7.2 8.2 7.7 7.5 7.4 7.0 7.1 7.3 6.9 6.9 7.4 7.6 7.7 7.7 7.9 9.0 8.5 8.5 7.8 8.3 8.5 7.6 6.5 5.6 6.1 6.1 5.7 5.0 4.7 4.8 5.3 5.0 4.7 5.9 5.4 5.6
4.7 5.1 5.6 5.6 6.1 6.1 6.5 6.8 7.2 7.5 7.0 8.1 8.2 7.6 7.5 8.0 8.1 7.1 7.0 7.3 7.9 7.9 7.9 8.4 9.3 8.3 7.8 8.3 8.5 8.0 7.6 6.0 6.8 7.0 6.4 5.8 5.7 5.1 5.2 5.1 5.6 5.6 4.9 5.4 5.7
5.0 5.5 5.8 6.0 6.2 6.2 6.5 7.1 7.6 7.8 8.7 8.7 8.4 8.5 8.2 8.6 8.2 7.6 7.3 7.4 7.8 8.1 8.0 9.4 8.5 7.8 8.2 8.6 8.1 7.6 7.4 7.6 7.2 7.7 7.4 6.8 6.9 5.4 5.6 5.6 5.8 5.5 5.6 5.6 5.5
5.3 5.7 5.9 6.2 5.8 6.2 6.8 7.4 7.5 8.7 8.5 9.0 9.1 8.8 8.8 9.3 9.0 7.9 7.7 7.7 8.2 8.2 8.1 8.4 7.8 7.9 8.4 9.0 7.9 7.5 7.9 7.4 6.8 7.6 8.1 7.3 7.4 7.1 7.2 7.0 6.4 5.9 5.6 6.0 5.7
5.5 5.7 6.0 6.2 6.1 6.5 7.3 7.4 9.0 9.0 9.3 8.7 9.1 9.3 8.9 9.2 9.3 8.8 8.4 8.6 8.7 9.2 9.6 9.1 8.7 8.2 8.1 9.0 8.5 8.0 8.5 6.9 7.6 7.6 7.6 8.3 8.5 7.0 7.6 7.2 6.9 5.8 6.0 6.0 6.2
5.5 5.9 6.3 6.3 6.4 6.8 7.6 9.1 9.3 9.4 9.0 9.4 9.0 9.4 9.1 9.1 8.7 9.3 9.4 9.4 9.3 8.5 9.5 9.6 9.5 8.9 8.3 8.4 8.8 8.4 8.2 8.7 6.9 8.3 8.3 7.5 8.3 7.6 7.2 7.1 6.5 6.2 6.3 6.3 6.0
5.7 6.1 6.3 6.6 6.7 7.1 7.1 8.7 8.1 8.1 8.3 8.7 8.5 8.7 9.0 9.3 9.3 9.3 9.3 9.2 8.8 8.6 8.7 9.4 9.6 9.5 8.8 8.2 8.4 8.7 9.1 8.7 9.1 8.6 7.9 7.3 7.3 8.5 7.7 7.0 6.9 6.9 6.3 6.6 6.5
5.8 6.7 6.9 6.9 6.9 6.9 9.3 8.1 8.1 8.2 8.2 8.8 9.3 9.2 9.0 9.0 9.3 9.0 8.6 8.6 8.7 8.7 8.1 8.7 9.2 9.5 9.2 8.1 8.5 8.4 8.6 9.0 9.3 9.3 9.0 8.4 7.9 7.2 8.3 8.1 7.8 7.2 6.9 6.4 6.2
6.0 7.6 7.1 7.1 7.0 8.2 8.7 7.9 7.7 8.4 8.3 8.4 8.7 9.2 9.1 8.9 9.2 9.2 9.1 8.5 8.6 8.9 8.7 8.7 9.4 9.2 9.5 9.5 8.5 9.4 9.5 9.2 9.5 9.5 9.5 9.5 7.7 7.1 7.8 7.8 7.9 7.2 6.9 6.8 6.1
6.4 7.3 7.1 6.9 8.9 8.7 7.5 7.7 7.9 8.3 8.0 8.1 8.6 8.3 8.1 9.2 9.3 8.9 8.9 8.1 8.3 8.5 9.0 9.0 8.9 9.5 9.4 9.5 9.5 9.1 9.6 9.5 9.6 9.6 9.6 9.7 8.7 7.9 8.3 7.7 7.4 7.1 6.9 6.9 6.5
6.4 7.7 7.6 7.6 7.8 8.3 7.9 7.9 8.1 7.7 8.0 8.0 7.9 8.0 8.2 8.7 8.9 8.2 9.2 8.5 8.4 8.7 8.3 8.5 8.9 9.1 9.1 7.8 8.2 9.3 9.0 9.6 9.5 9.6 9.6 9.6 8.4 8.3 8.6 8.7 8.4 7.8 6.9 6.6 6.5
6.7 8.3 7.9 9.1 8.3 7.9 7.7 7.7 7.8 8.1 7.7 7.8 8.0 8.1 8.4 9.2 9.3 9.2 9.3 8.4 8.6 8.4 8.4 8.5 8.8 9.0 8.9 8.2 8.3 9.2 9.5 9.5 9.6 9.6 9.6 9.6 9.7 8.0 8.0 8.5 8.5 8.2 7.8 6.7 6.6
6.7 7.3 7.8 8.0 7.8 8.0 7.9 7.9 7.8 7.7 7.4 8.0 8.0 8.0 8.1 8.7 8.3 8.4 9.2 9.3 8.9 9.1 8.8 9.1 9.2 9.0 8.5 8.4 8.4 9.3 9.3 9.4 9.5 9.6 9.6 9.5 9.2 8.3 6.7 7.5 8.3 8.5 8.3 7.6 7.3
6.8 7.1 7.4 8.0 8.2 8.5 8.9 8.0 7.8 7.5 7.3 7.3 7.5 7.9 8.3 7.9 7.8 7.9 8.3 8.2 8.8 8.3 9.2 9.2 9.1 8.6 9.2 9.3 9.2 8.8 9.3 9.4 9.4 9.5 9.5 9.4 8.8 8.3 7.1 8.3 8.6 8.5 8.3 7.9 7.5
Wind_Speed
12 11 11 11 10 10 9 9 9 9 10 10 11 12 14 15 20 11 12 2 7 10 7 14 13 12 12 7 6 3 4 5 8 14 7 6 11 11 5 11 9 4 23 22 21
11 12 11 10 10 10 9 9 10 10 10 10 10 11 14 14 15 17 5 10 8 12 15 15 15 14 12 10 7 7 3 2 3 11 8 13 12 10 10 11 8 18 21 21 20
12 12 11 10 9 9 9 9 10 10 10 11 11 11 12 14 12 5 14 15 12 16 19 14 12 13 16 10 17 1 3 8 9 9 8 11 12 11 11 9 16 22 23 21 20
11 11 11 10 10 10 9 9 8 9 9 10 11 11 12 11 3 9 2 15 16 20 19 16 13 15 14 8 10 2 3 10 11 5 4 7 11 9 10 11 14 21 23 21 19
12 12 11 10 10 9 9 8 9 9 9 9 10 10 10 8 8 10 6 18 17 19 20 18 15 15 13 9 6 7 5 10 14 7 7 4 9 5 6 13 16 21 20 20 17
12 12 10 10 10 9 9 9 10 9 9 8 9 9 10 14 4 3 8 16 16 20 18 17 12 16 9 8 4 8 9 15 11 7 3 10 8 1 9 15 20 21 20 18 17
12 11 10 9 9 9 9 10 10 9 8 8 8 9 11 3 3 4 11 16 17 19 16 17 11 12 9 9 10 4 9 12 10 14 5 7 7 4 11 18 21 21 18 17 16
12 11 11 11 10 10 11 11 11 10 8 7 7 11 9 5 6 5 12 13 13 17 16 14 9 16 16 4 8 6 8 7 11 13 7 6 10 6 12 19 21 20 18 16 17
12 12 12 12 11 12 12 13 11 9 8 8 8 10 5 4 10 8 10 13 12 10 10 6 11 15 13 10 11 10 6 9 6 8 9 9 15 10 12 20 20 18 18 17 16
12 13 14 13 13 12 13 9 6 7 8 9 9 8 6 11 10 9 10 11 14 12 11 12 10 14 13 13 13 15 13 9 7 9 5 5 5 11 11 15 16 18 19 15 14
14 13 14 14 14 11 12 4 6 7 11 10 8 6 6 7 10 9 10 14 11 12 15 18 13 17 20 20 5 3 4 9 8 12 3 8 11 15 15 12 13 14 18 20 16
15 14 14 15 14 12 8 7 10 9 5 6 5 5 3 14 11 11 14 13 13 14 18 12 17 18 18 11 6 10 13 13 10 15 7 12 12 18 13 16 18 12 16 19 19
15 15 14 15 14 4 10 12 6 8 7 6 5 8 10 9 12 14 17 11 13 16 17 14 15 19 18 7 9 14 12 17 21 16 8 9 4 14 15 13 6 15 15 11 18
16 15 14 16 5 3 7 1 6 4 6 13 8 5 6 11 9 14 15 7 10 15 13 14 10 17 10 14 14 2 12 9 12 14 3 13 2 1 12 16 10 12 19 19 19
16 15 13 8 12 10 5 6 8 4 2 3 7 4 11 10 15 11 12 8 11 11 10 13 9 11 15 18 8 5 10 25 13 11 12 10 6 2 8 14 17 15 14 18 22
16 14 12 7 6 12 7 9 6 6 2 6 5 8 11 10 9 11 12 10 8 10 11 13 7 10 16 14 9 3 6 7 8 6 7 13 12 14 15 23 24 20 21 15 16
19 16 8 11 2 3 6 8 4 4 4 4 2 12 13 11 11 13 13 14 9 10 11 12 10 14 13 15 8 10 7 3 1 3 2 9 9 9 24 25 26 27 15 20 24
23 12 12 9 8 7 9 11 2 4 10 4 4 5 7 4 14 14 13 12 12 12 10 12 13 14 10 13 11 15 13 6 4 3 5 6 4 5 26 20 24 29 25 23 18
21 5 6 4 11 6 9 7 6 7 5 3 8 10 14 13 6 6 10 12 9 11 13 14 16 19 15 14 15 14 16 19 8 8 7 7 8 8 15 17 18 28 28 28 23
5 8 4 4 5 7 10 9 5 4 6 9 4 6 8 8 7 6 4 7 4 2 11 7 6 13 12 11 15 18 13 15 12 9 4 3 10 5 12 16 15 23 26 27 22
7 5 5 8 7 9 1 7 6 6 5 8 3 3 2 3 7 16 4 4 0 9 7 16 9 11 12 18 17 13 14 13 16 14 9 6 1 16 14 13 15 16 26 26 26
11 2 5 5 9 3 6 4 5 3 5 1 5 8 4 2 8 3 6 1 7 9 8 12 8 13 15 12 17 17 17 15 11 18 14 13 6 6 5 10 13 16 15 21 22
6 6 5 7 6 5 4 8 4 5 5 5 3 5 2 5 5 4 5 2 1 9 8 9 9 10 11 12 8 14 15 19 19 14 16 13 7 13 10 9 10 10 12 15 14
6 5 5 6 6 6 4 2 4 2 2 5 6 5 5 10 7 7 6 6 2 6 8 5 14 15 7 12 15 19 19 16 20 14 14 16 16 14 15 13 11 9 8 10 14
8 3 6 2 5 3 3 3 2 1 1 2 3 7 8 3 6 8 4 9 8 7 6 7 14 12 13 9 19 20 21 20 18 17 17 14 8 16 20 19 15 12 8 8 9
6 4 4 1 0 5 5 2 3 2 3 1 7 1 6 4 7 5 9 8 1 5 9 10 12 13 14 10 14 14 10 8 17 17 17 19 10 12 9 16 18 13 11 9 9
3 4 6 8 7 9 7 4 5 2 2 3 6 8 5 9 9 6 6 5 5 7 7 6 12 3 17 12 13 15 12 11 14 16 16 13 7 7 22 10 11 13 11 9 11
Wind_Direction
330 329 328 325 321 316 311 309 306 306 306 310 313 314 314 313 298 244 241 104 189 183 205 203 210 213 215 216 205 200 260 221 183 163 166 184 149 94 144 125 148 103 138 133 147
333 331 332 329 325 319 312 307 301 300 301 303 305 309 311 312 288 261 185 127 139 193 205 194 198 203 205 182 226 212 265 325 105 134 179 162 145 155 151 152 135 129 125 136 146
336 336 334 329 328 323 317 311 307 300 300 301 302 304 305 306 271 207 102 153 185 202 218 203 209 210 227 168 225 226 282 117 117 124 217 163 152 159 154 146 141 139 143 155 148
339 335 336 332 331 326 320 312 304 300 301 299 299 300 301 271 232 84 141 187 195 200 226 208 214 218 240 214 206 175 74 109 144 87 240 160 140 161 156 152 136 146 148 150 159
344 342 338 334 328 323 319 312 308 301 296 293 292 299 281 218 258 109 122 171 190 201 213 204 212 219 237 226 191 146 132 98 136 97 81 88 103 122 103 127 145 147 152 154 162
346 344 338 331 324 317 313 309 309 296 288 282 287 293 251 247 45 110 144 162 189 201 204 206 210 229 306 239 170 107 150 131 138 131 100 122 111 163 150 145 149 151 159 159 155
346 341 336 325 317 311 306 299 295 288 275 268 270 259 262 232 333 245 178 180 193 207 200 213 224 230 236 205 128 102 137 135 145 154 143 126 144 114 155 152 152 161 162 156 158
339 340 335 328 321 313 307 297 284 277 262 252 245 253 275 48 313 213 180 188 185 211 225 203 234 250 262 127 145 159 154 148 168 165 173 160 149 184 175 161 162 161 159 159 161
340 338 334 330 326 319 311 298 275 251 246 234 230 229 226 134 204 160 203 177 182 205 214 157 235 232 220 229 203 168 241 137 162 169 146 208 151 204 235 169 170 164 159 166 149
335 335 333 329 326 318 309 284 182 200 215 214 264 252 224 198 126 164 168 179 180 172 186 206 220 219 242 216 209 200 202 135 147 179 188 206 135 174 228 212 175 169 166 144 154
335 331 330 327 321 314 303 205 207 205 213 293 145 290 134 119 156 170 173 176 188 194 202 200 209 210 208 223 107 348 313 132 153 153 100 283 163 178 205 235 177 186 175 156 167
331 328 326 325 317 301 270 266 36 344 312 187 241 264 297 172 167 155 177 184 195 205 222 183 216 217 238 290 236 191 135 186 150 126 94 350 177 178 215 210 206 193 191 171 160
325 326 323 321 321 252 245 297 334 327 251 127 181 195 177 222 185 165 197 220 201 214 211 213 204 234 229 230 248 238 145 186 144 128 111 121 331 148 209 252 255 186 202 193 159
323 322 319 318 294 270 252 131 278 319 256 138 165 119 183 222 193 162 210 217 206 216 206 242 232 207 198 238 234 164 115 60 163 166 138 198 112 300 193 230 233 256 196 169 185
320 316 309 287 321 264 12 278 323 242 39 41 89 94 155 226 125 179 203 221 231 214 217 214 201 200 215 225 235 64 303 156 185 135 138 189 127 13 151 233 233 244 216 186 182
318 311 306 221 223 263 291 292 262 236 29 128 158 184 187 214 210 143 191 258 305 231 212 270 206 210 223 226 183 86 218 39 346 202 193 181 200 176 180 211 224 227 214 192 261
314 298 249 309 359 312 279 271 280 146 210 131 165 194 234 161 117 174 189 206 201 198 201 222 221 217 234 198 138 221 189 258 99 277 197 179 209 169 198 202 205 202 212 228 194
316 305 202 260 298 274 267 248 195 336 47 117 254 261 349 62 151 179 189 207 235 247 190 215 181 200 215 227 182 211 217 188 206 183 238 168 227 65 182 194 193 192 193 225 226
316 206 206 178 230 263 270 270 34 18 334 309 197 239 169 146 271 203 222 224 169 241 281 200 247 174 187 226 235 188 230 243 239 256 205 248 120 124 148 176 194 194 182 210 222
263 210 123 200 217 250 258 40 95 6 309 256 251 127 277 161 203 215 205 118 305 302 314 324 250 160 196 206 235 266 208 227 243 262 270 273 292 132 171 170 186 188 181 194 209
246 226 105 224 246 247 105 73 101 52 315 313 346 299 9 276 69 286 273 136 249 155 256 282 258 202 201 204 223 206 247 243 268 249 196 224 145 329 163 172 190 208 181 186 186
278 254 138 240 251 287 105 78 300 96 163 104 299 327 311 325 280 213 133 230 41 298 211 229 278 248 196 213 223 240 216 235 234 242 276 287 190 25 300 168 187 191 200 195 171
263 106 197 243 271 129 148 127 343 11 51 2 14 315 309 292 287 175 123 106 150 241 15 345 235 244 262 172 201 231 231 220 249 250 258 269 137 164 187 156 167 176 180 189 173
279 196 158 247 338 322 171 125 147 106 18 335 317 274 247 232 216 241 217 131 209 356 9 305 277 290 335 330 301 197 235 241 225 237 233 250 131 161 169 165 149 158 164 165 166
248 318 13 223 175 23 285 31 287 272 141 251 166 298 331 329 271 224 221 183 198 141 233 259 272 283 292 258 280 281 208 219 226 252 265 237 270 163 174 160 155 150 150 145 98
305 293 178 345 94 243 135 90 317 58 320 2 283 48 300 308 85 302 297 274 286 202 245 250 262 282 282 185 267 275 247 248 216 234 254 269 244 79 93 124 137 133 148 165 134
16 263 274 125 230 242 91 50 22 30 114 315 308 275 239 49 337 1 278 277 302 273 285 277 279 319 267 255 202 251 252 231 249 242 239 254 44 177 139 143 137 134 163 157 153